| time (UTC) | temp F | wind direction | speed knots | gust knots | rain 1hr in | rain 24hr in | rain mn in | humidity % | barometer mb |
| 20260904081424 | 75 | 256 | 0.9 | 1.7 | 0.00 | 0.00 | 0.00 | 95 | 1012.5 |
| 20260904080926 | 76 | 243 | 0.0 | 1.7 | 0.00 | 0.00 | 0.00 | 95 | 1012.5 |
| 20260904080422 | 76 | 247 | 0.0 | 0.9 | 0.00 | 0.00 | 0.00 | 95 | 1012.5 |
| 20260904080144 | 76 | 180 | 0.0 | 0.9 | 0.00 | 0.00 | 0.00 | 95 | 1012.5 |
| 20260904075647 | 76 | 242 | 0.0 | 0.9 | 0.00 | 0.00 | 0.00 | 95 | 1012.2 |
| 20260904074921 | 76 | 202 | 0.0 | 1.7 | 0.00 | 0.00 | 0.00 | 95 | 1012.5 |
| 20260904074642 | 76 | 180 | 0.0 | 1.7 | 0.00 | 0.00 | 0.00 | 95 | 1012.2 |
| 20260904074140 | 76 | 207 | 0.9 | 1.7 | 0.00 | 0.00 | 0.00 | 96 | 1012.2 |
| 20260904073421 | 75 | 206 | 1.7 | 1.7 | 0.00 | 0.00 | 0.00 | 96 | 1011.9 |
| 20260904072919 | 75 | 191 | 0.9 | 1.7 | 0.00 | 0.00 | 0.00 | 96 | 1011.9 |
| 20260904072419 | 75 | 235 | 0.9 | 1.7 | 0.00 | 0.00 | 0.00 | 97 | 1011.9 |
| 20260904071918 | 75 | 248 | 0.9 | 1.7 | 0.00 | 0.00 | 0.00 | 96 | 1011.9 |
| 20260904071419 | 75 | 232 | 0.0 | 1.7 | 0.00 | 0.00 | 0.00 | 96 | 1011.9 |
| 20260904070917 | 75 | 205 | 0.0 | 0.9 | 0.00 | 0.00 | 0.00 | 96 | 1011.9 |
| 20260904070418 | 74 | 235 | 0.0 | 0.9 | 0.00 | 0.00 | 0.00 | 95 | 1012.2 |
| 20260904065916 | 74 | 193 | 0.0 | 0.9 | 0.00 | 0.00 | 0.00 | 95 | 1012.2 |
| 20260904065416 | 74 | 224 | 0.0 | 0.9 | 0.00 | 0.00 | 0.00 | 95 | 1012.2 |
| 20260904064917 | 74 | 206 | 0.0 | 0.9 | 0.00 | 0.00 | 0.00 | 95 | 1012.2 |
| 20260904064414 | 75 | 218 | 0.9 | 0.9 | 0.00 | 0.00 | 0.00 | 95 | 1012.5 |
| 20260904063914 | 75 | 208 | 0.0 | 0.9 | 0.00 | 0.00 | 0.00 | 95 | 1012.5 |
| 20260904063413 | 75 | 209 | 0.0 | 1.7 | 0.00 | 0.00 | 0.00 | 94 | 1012.5 |
| 20260904063122 | 75 | 197 | 0.0 | 0.9 | 0.00 | 0.00 | 0.00 | 94 | 1012.9 |
| 20260904063002 | 75 | 203 | 0.9 | 1.7 | 0.00 | 0.00 | 0.00 | 94 | 1012.5 |
| 20260904061913 | 75 | 219 | 0.0 | 1.7 | 0.00 | 0.00 | 0.00 | 94 | 1012.9 |
| 20260904061412 | 75 | 170 | 0.9 | 1.7 | 0.00 | 0.00 | 0.00 | 94 | 1012.9 |
| 20260904060911 | 75 | 167 | 1.7 | 1.7 | 0.00 | 0.00 | 0.00 | 94 | 1012.9 |
| 20260904060411 | 75 | 173 | 0.9 | 1.7 | 0.00 | 0.00 | 0.00 | 94 | 1013.3 |
| 20260904060136 | 75 | 160 | 0.9 | 1.7 | 0.00 | 0.00 | 0.00 | 95 | 1013.3 |
| 20260904055425 | 75 | 142 | 0.0 | 0.9 | 0.00 | 0.00 | 0.00 | 95 | 1013.3 |
| 20260904054910 | 75 | 129 | 0.0 | 0.9 | 0.00 | 0.00 | 0.00 | 95 | 1013.3 |
| 20260904054409 | 75 | 154 | 0.0 | 0.9 | 0.00 | 0.00 | 0.00 | 95 | 1013.3 |
| 20260904054135 | 75 | 140 | 0.9 | 1.7 | 0.00 | 0.00 | 0.00 | 95 | 1013.7 |
| 20260904053421 | 75 | 205 | 0.0 | 1.7 | 0.00 | 0.00 | 0.00 | 95 | 1013.3 |
| 20260904052906 | 75 | 154 | 0.0 | 1.7 | 0.00 | 0.00 | 0.00 | 95 | 1013.3 |
| 20260904052407 | 75 | 214 | 0.0 | 1.7 | 0.00 | 0.00 | 0.00 | 94 | 1013.7 |
| 20260904051907 | 75 | 150 | 0.0 | 0.9 | 0.00 | 0.00 | 0.00 | 94 | 1013.3 |
| 20260904051407 | 75 | 129 | 0.0 | 0.0 | 0.00 | 0.00 | 0.00 | 94 | 1013.3 |
| 20260904050905 | 75 | 129 | 0.0 | 0.0 | 0.00 | 0.00 | 0.00 | 94 | 1012.9 |
| 20260904050405 | 75 | 129 | 0.0 | 0.0 | 0.00 | 0.00 | 0.00 | 94 | 1012.9 |
| 20260904045903 | 75 | 103 | 0.0 | 0.9 | 0.00 | 0.00 | 0.00 | 94 | 1012.9 |
| 20260904045404 | 75 | 89 | 0.0 | 0.9 | 0.00 | 0.00 | 0.00 | 94 | 1012.9 |
| 20260904044903 | 75 | 309 | 0.0 | 0.9 | 0.00 | 0.00 | 0.00 | 93 | 1013.3 |
| 20260904044627 | 76 | 322 | 0.0 | 0.9 | 0.00 | 0.00 | 0.00 | 93 | 1013.3 |
| 20260904043901 | 76 | 297 | 0.0 | 0.9 | 0.00 | 0.00 | 0.00 | 93 | 1012.9 |
| 20260904043402 | 76 | 230 | 0.0 | 0.9 | 0.00 | 0.00 | 0.00 | 92 | 1013.3 |
| 20260904043128 | 76 | 230 | 0.0 | 0.9 | 0.00 | 0.00 | 0.00 | 92 | 1013.3 |
| 20260904042400 | 76 | 180 | 0.0 | 0.9 | 0.00 | 0.00 | 0.00 | 92 | 1012.9 |
| 20260904041900 | 76 | 135 | 0.0 | 0.0 | 0.00 | 0.00 | 0.00 | 92 | 1013.3 |
| 20260904041402 | 76 | 129 | 0.0 | 0.0 | 0.00 | 0.00 | 0.00 | 92 | 1013.3 |
| 20260904040900 | 76 | 129 | 0.0 | 0.0 | 0.00 | 0.00 | 0.00 | 92 | 1013.3 |
| 20260904040359 | 76 | 22 | 0.0 | 1.7 | 0.00 | 0.00 | 0.00 | 92 | 1013.7 |
| 20260904035858 | 76 | 269 | 0.0 | 1.7 | 0.00 | 0.00 | 0.00 | 91 | 1013.3 |
| 20260904035357 | 76 | 284 | 0.0 | 1.7 | 0.00 | 0.00 | 0.00 | 91 | 1012.9 |
| 20260904034857 | 76 | 269 | 0.9 | 1.7 | 0.00 | 0.00 | 0.00 | 91 | 1013.3 |
| 20260904034357 | 77 | 333 | 1.7 | 1.7 | 0.00 | 0.00 | 0.00 | 91 | 1013.3 |
| 20260904033858 | 77 | 333 | 0.0 | 0.9 | 0.00 | 0.00 | 0.00 | 91 | 1013.3 |
| 20260904033356 | 77 | 297 | 0.0 | 0.9 | 0.00 | 0.00 | 0.00 | 91 | 1013.3 |
| 20260904032900 | 77 | 357 | 0.0 | 1.7 | 0.00 | 0.00 | 0.00 | 90 | 1013.3 |
| 20260904032854 | 77 | 306 | 0.0 | 1.7 | 0.00 | 0.00 | 0.00 | 91 | 1013.3 |
| 20260904031854 | 77 | 104 | 0.0 | 0.9 | 0.00 | 0.00 | 0.00 | 91 | 1013.3 |
| 20260904031354 | 77 | 89 | 0.0 | 0.9 | 0.00 | 0.00 | 0.00 | 92 | 1013.3 |
| 20260904030853 | 77 | 89 | 0.0 | 0.9 | 0.00 | 0.00 | 0.00 | 92 | 1013.3 |
| 20260904030353 | 77 | 120 | 0.0 | 0.9 | 0.00 | 0.00 | 0.00 | 92 | 1013.3 |
| 20260904025853 | 77 | 25 | 0.0 | 0.9 | 0.00 | 0.00 | 0.00 | 91 | 1013.3 |
| 20260904025353 | 77 | 75 | 0.0 | 1.7 | 0.00 | 0.00 | 0.00 | 91 | 1013.3 |
| 20260904024850 | 77 | 183 | 0.0 | 1.7 | 0.00 | 0.00 | 0.00 | 92 | 1013.3 |
| 20260904024616 | 77 | 322 | 0.0 | 1.7 | 0.00 | 0.00 | 0.00 | 92 | 1013.7 |
| 20260904024111 | 77 | 343 | 0.9 | 1.7 | 0.00 | 0.00 | 0.00 | 92 | 1013.3 |
| 20260904023349 | 77 | 65 | 0.0 | 1.7 | 0.00 | 0.00 | 0.00 | 91 | 1013.3 |
| 20260904022850 | 77 | 32 | 0.9 | 0.9 | 0.00 | 0.00 | 0.00 | 92 | 1013.3 |
| 20260904022617 | 77 | 309 | 0.0 | 0.0 | 0.00 | 0.00 | 0.00 | 92 | 1013.3 |
| 20260904021848 | 77 | 352 | 0.0 | 1.7 | 0.00 | 0.00 | 0.00 | 91 | 1013.3 |
| 20260904021606 | 77 | 242 | 0.0 | 1.7 | 0.00 | 0.00 | 0.00 | 91 | 1012.9 |
| 20260904020847 | 77 | 239 | 0.9 | 0.9 | 0.00 | 0.00 | 0.00 | 91 | 1012.9 |
| 20260904020348 | 78 | 242 | 0.0 | 0.0 | 0.00 | 0.00 | 0.00 | 92 | 1012.9 |
| 20260904015848 | 78 | 104 | 0.0 | 0.9 | 0.00 | 0.00 | 0.00 | 92 | 1012.9 |
| 20260904015346 | 78 | 25 | 0.0 | 0.9 | 0.00 | 0.00 | 0.00 | 91 | 1012.9 |
| 20260904014845 | 78 | 297 | 0.0 | 0.9 | 0.00 | 0.00 | 0.00 | 91 | 1012.9 |
| 20260904014613 | 78 | 333 | 0.0 | 0.9 | 0.00 | 0.00 | 0.00 | 90 | 1012.9 |
| 20260904013843 | 78 | 315 | 0.0 | 0.0 | 0.00 | 0.00 | 0.00 | 90 | 1012.9 |
| 20260904013344 | 78 | 309 | 0.0 | 0.9 | 0.00 | 0.00 | 0.00 | 90 | 1012.5 |
| 20260904012844 | 79 | 309 | 0.0 | 0.9 | 0.00 | 0.00 | 0.00 | 89 | 1012.5 |
| 20260904012342 | 79 | 317 | 0.0 | 0.9 | 0.00 | 0.00 | 0.00 | 89 | 1012.5 |
| 20260904011841 | 79 | 315 | 0.0 | 0.0 | 0.00 | 0.00 | 0.00 | 89 | 1012.5 |
| 20260904011343 | 79 | 315 | 0.0 | 0.9 | 0.00 | 0.00 | 0.00 | 88 | 1012.5 |
| 20260904010842 | 80 | 315 | 0.0 | 0.9 | 0.00 | 0.00 | 0.00 | 88 | 1012.2 |
| 20260904010340 | 80 | 15 | 0.0 | 1.7 | 0.00 | 0.00 | 0.00 | 87 | 1012.5 |
| 20260904005840 | 80 | 336 | 0.0 | 1.7 | 0.00 | 0.00 | 0.00 | 86 | 1012.2 |
| 20260904005815 | 81 | 320 | 0.9 | 1.7 | 0.00 | 0.00 | 0.00 | 85 | 1012.2 |
| 20260904004839 | 81 | 325 | 1.7 | 1.7 | 0.00 | 0.00 | 0.00 | 84 | 1011.9 |
| 20260904004339 | 81 | 327 | 1.7 | 1.7 | 0.00 | 0.00 | 0.00 | 83 | 1011.9 |
| 20260904003837 | 82 | 345 | 0.9 | 1.7 | 0.00 | 0.00 | 0.00 | 83 | 1011.9 |
| 20260904003338 | 82 | 331 | 0.0 | 1.7 | 0.00 | 0.00 | 0.00 | 82 | 1011.9 |
| 20260904002837 | 82 | 283 | 0.0 | 1.7 | 0.00 | 0.00 | 0.00 | 80 | 1011.5 |
| 20260904002336 | 83 | 179 | 0.0 | 0.9 | 0.00 | 0.00 | 0.00 | 80 | 1011.5 |
| 20260904001837 | 83 | 195 | 0.0 | 1.7 | 0.00 | 0.00 | 0.00 | 79 | 1011.5 |
| 20260904001334 | 84 | 213 | 0.0 | 1.7 | 0.00 | 0.00 | 0.00 | 78 | 1011.9 |
| 20260904000835 | 84 | 214 | 0.0 | 2.6 | 0.00 | 0.00 | 0.00 | 78 | 1011.5 |
| 20260904000603 | 84 | 214 | 0.0 | 2.6 | 0.00 | 0.00 | 0.00 | 77 | 1011.5 |
| 20260904000053 | 85 | 243 | 0.0 | 1.7 | 0.00 | 0.00 | 0.00 | 76 | 1011.5 |
| 20260903235334 | 85 | 201 | 1.7 | 1.7 | 0.00 | 0.00 | 0.00 | 75 | 1011.2 |
| 20260903234832 | 85 | 211 | 0.9 | 0.9 | 0.00 | 0.00 | 0.00 | 75 | 1011.5 |
| 20260903234559 | 85 | 214 | 0.0 | 1.7 | 0.00 | 0.00 | 0.00 | 73 | 1011.5 |
| 20260903234050 | 86 | 184 | 1.7 | 1.7 | 0.00 | 0.00 | 0.00 | 72 | 1011.5 |
| 20260903233817 | 86 | 171 | 0.0 | 1.7 | 0.00 | 0.00 | 0.00 | 73 | 1011.9 |
| 20260903232831 | 86 | 290 | 0.0 | 1.7 | 0.00 | 0.00 | 0.00 | 72 | 1011.5 |
| 20260903232330 | 86 | 216 | 0.9 | 1.7 | 0.00 | 0.00 | 0.00 | 72 | 1011.9 |
| 20260903231830 | 86 | 217 | 1.7 | 1.7 | 0.00 | 0.00 | 0.00 | 72 | 1011.9 |
| 20260903231330 | 86 | 30 | 0.0 | 1.7 | 0.00 | 0.00 | 0.00 | 71 | 1011.9 |
| 20260903230831 | 87 | 234 | 1.7 | 1.7 | 0.00 | 0.00 | 0.00 | 71 | 1011.9 |
| 20260903230602 | 87 | 225 | 1.7 | 1.7 | 0.00 | 0.00 | 0.00 | 72 | 1012.2 |
| 20260903225827 | 87 | 304 | 0.0 | 1.7 | 0.00 | 0.00 | 0.00 | 70 | 1011.9 |
| 20260903225328 | 87 | 254 | 0.9 | 1.7 | 0.00 | 0.00 | 0.00 | 70 | 1012.2 |
| 20260903224827 | 87 | 231 | 0.9 | 1.7 | 0.00 | 0.00 | 0.00 | 70 | 1012.2 |
| 20260903224328 | 87 | 272 | 0.9 | 1.7 | 0.00 | 0.00 | 0.00 | 70 | 1012.2 |
| 20260903223826 | 88 | 254 | 1.7 | 2.6 | 0.00 | 0.00 | 0.00 | 69 | 1011.9 |
| 20260903223326 | 88 | 261 | 1.7 | 2.6 | 0.00 | 0.00 | 0.00 | 69 | 1012.2 |
| 20260903222824 | 88 | 213 | 0.0 | 1.7 | 0.00 | 0.00 | 0.00 | 70 | 1012.2 |
| 20260903222542 | 88 | 250 | 0.9 | 1.7 | 0.00 | 0.00 | 0.00 | 68 | 1012.2 |
| 20260903221823 | 88 | 232 | 1.7 | 1.7 | 0.00 | 0.00 | 0.00 | 67 | 1012.2 |
| 20260903221323 | 88 | 272 | 0.9 | 2.6 | 0.00 | 0.00 | 0.00 | 67 | 1012.2 |
| 20260903220823 | 88 | 232 | 0.9 | 4.3 | 0.00 | 0.00 | 0.00 | 66 | 1012.2 |
| 20260903220322 | 88 | 158 | 2.6 | 4.3 | 0.00 | 0.00 | 0.00 | 66 | 1012.5 |
| 20260903215821 | 88 | 254 | 0.9 | 4.3 | 0.00 | 0.00 | 0.00 | 67 | 1012.2 |
| 20260903215322 | 88 | 216 | 1.7 | 3.5 | 0.00 | 0.00 | 0.00 | 66 | 1012.5 |
| 20260903215043 | 88 | 239 | 1.7 | 5.2 | 0.00 | 0.00 | 0.00 | 68 | 1012.2 |
| 20260903214320 | 88 | 185 | 1.7 | 5.2 | 0.00 | 0.00 | 0.00 | 67 | 1012.2 |
| 20260903213820 | 88 | 264 | 1.7 | 3.5 | 0.00 | 0.00 | 0.00 | 66 | 1012.2 |
| 20260903213319 | 88 | 218 | 0.9 | 3.5 | 0.00 | 0.00 | 0.00 | 68 | 1012.2 |
| 20260903212820 | 88 | 168 | 1.7 | 3.5 | 0.00 | 0.00 | 0.00 | 66 | 1012.5 |
| 20260903212317 | 88 | 223 | 1.7 | 4.3 | 0.00 | 0.00 | 0.00 | 66 | 1012.5 |
| 20260903211818 | 88 | 281 | 2.6 | 4.3 | 0.00 | 0.00 | 0.00 | 65 | 1012.5 |
| 20260903211318 | 88 | 253 | 1.7 | 3.5 | 0.00 | 0.00 | 0.00 | 66 | 1012.5 |
| 20260903210818 | 88 | 241 | 1.7 | 5.2 | 0.00 | 0.00 | 0.00 | 67 | 1012.5 |
| 20260903210316 | 88 | 225 | 1.7 | 5.2 | 0.00 | 0.00 | 0.00 | 65 | 1012.5 |
| 20260903205815 | 88 | 323 | 0.9 | 3.5 | 0.00 | 0.00 | 0.00 | 65 | 1012.5 |
| 20260903205316 | 88 | 152 | 2.6 | 3.5 | 0.00 | 0.00 | 0.00 | 67 | 1012.5 |
| 20260903205306 | 88 | 210 | 1.7 | 4.3 | 0.00 | 0.00 | 0.00 | 67 | 1012.5 |
| 20260903204314 | 88 | 219 | 0.9 | 4.3 | 0.00 | 0.00 | 0.00 | 67 | 1012.5 |
| 20260903203815 | 88 | 184 | 0.0 | 3.5 | 0.00 | 0.00 | 0.00 | 67 | 1012.5 |
| 20260903203313 | 88 | 267 | 0.9 | 3.5 | 0.00 | 0.00 | 0.00 | 67 | 1012.5 |
| 20260903202813 | 88 | 185 | 3.5 | 3.5 | 0.00 | 0.00 | 0.00 | 68 | 1012.5 |
| 20260903202541 | 88 | 203 | 1.7 | 5.2 | 0.00 | 0.00 | 0.00 | 70 | 1012.5 |
| 20260903202033 | 87 | 174 | 1.7 | 5.2 | 0.00 | 0.00 | 0.00 | 67 | 1012.9 |
| 20260903201311 | 87 | 276 | 1.7 | 5.2 | 0.00 | 0.00 | 0.00 | 70 | 1012.9 |
| 20260903200810 | 87 | 159 | 3.5 | 5.2 | 0.00 | 0.00 | 0.00 | 71 | 1012.5 |
| 20260903200309 | 86 | 222 | 2.6 | 5.2 | 0.00 | 0.00 | 0.00 | 72 | 1012.9 |
| 20260903195810 | 86 | 182 | 3.5 | 3.5 | 0.00 | 0.00 | 0.00 | 71 | 1012.5 |
| 20260903195531 | 86 | 201 | 2.6 | 3.5 | 0.00 | 0.00 | 0.00 | 71 | 1012.9 |
| 20260903194810 | 85 | 283 | 0.9 | 3.5 | 0.00 | 0.00 | 0.00 | 73 | 1012.9 |
| 20260903194307 | 85 | 192 | 0.0 | 4.3 | 0.00 | 0.00 | 0.00 | 74 | 1013.3 |
| 20260903193807 | 85 | 147 | 0.9 | 4.3 | 0.00 | 0.00 | 0.00 | 72 | 1012.9 |
| 20260903193308 | 84 | 175 | 1.7 | 5.2 | 0.00 | 0.00 | 0.00 | 73 | 1013.3 |
| 20260903192808 | 85 | 187 | 0.0 | 7.8 | 0.00 | 0.00 | 0.00 | 72 | 1013.3 |
| 20260903192307 | 85 | 167 | 3.5 | 7.8 | 0.00 | 0.00 | 0.00 | 72 | 1013.3 |
| 20260903191806 | 85 | 156 | 5.2 | 5.2 | 0.00 | 0.00 | 0.00 | 74 | 1013.3 |
| 20260903191533 | 84 | 227 | 1.7 | 5.2 | 0.00 | 0.00 | 0.00 | 74 | 1013.3 |
| 20260903190806 | 84 | 242 | 1.7 | 4.3 | 0.00 | 0.00 | 0.00 | 74 | 1013.3 |
| 20260903190305 | 84 | 116 | 0.0 | 5.2 | 0.00 | 0.00 | 0.00 | 75 | 1013.3 |
| 20260903185802 | 83 | 131 | 4.3 | 6.1 | 0.00 | 0.00 | 0.00 | 75 | 1013.7 |
| 20260903185302 | 83 | 157 | 0.9 | 6.1 | 0.00 | 0.00 | 0.00 | 75 | 1013.3 |
| 20260903185023 | 83 | 158 | 3.5 | 5.2 | 0.00 | 0.00 | 0.00 | 76 | 1013.3 |
| 20260903184301 | 82 | 147 | 0.9 | 5.2 | 0.00 | 0.00 | 0.00 | 76 | 1013.7 |
| 20260903183802 | 82 | 152 | 2.6 | 5.2 | 0.00 | 0.00 | 0.00 | 76 | 1013.7 |
| 20260903183302 | 81 | 133 | 1.7 | 5.2 | 0.00 | 0.00 | 0.00 | 77 | 1013.7 |
| 20260903182800 | 82 | 54 | 5.2 | 5.2 | 0.00 | 0.00 | 0.00 | 77 | 1014.0 |
| 20260903182259 | 81 | 17 | 0.0 | 4.3 | 0.00 | 0.00 | 0.00 | 76 | 1013.7 |
| 20260903181759 | 81 | 151 | 1.7 | 7.8 | 0.00 | 0.00 | 0.00 | 78 | 1014.0 |
| 20260903181301 | 80 | 92 | 2.6 | 7.8 | 0.00 | 0.00 | 0.00 | 79 | 1014.0 |
| 20260903180759 | 80 | 70 | 3.5 | 5.2 | 0.00 | 0.00 | 0.00 | 79 | 1014.0 |
| 20260903180257 | 80 | 83 | 2.6 | 8.7 | 0.00 | 0.00 | 0.00 | 82 | 1014.3 |
| 20260903175756 | 79 | 191 | 1.7 | 8.7 | 0.00 | 0.00 | 0.00 | 80 | 1014.3 |
| 20260903175258 | 79 | 42 | 1.7 | 7.8 | 0.00 | 0.00 | 0.00 | 82 | 1014.3 |
| 20260903174758 | 79 | 13 | 1.7 | 7.8 | 0.00 | 0.00 | 0.00 | 80 | 1014.3 |
| 20260903174258 | 79 | 117 | 1.7 | 7.8 | 0.00 | 0.00 | 0.00 | 81 | 1014.3 |
| 20260903173809 | 79 | 111 | 2.6 | 7.8 | 0.00 | 0.00 | 0.00 | 82 | 1014.3 |
| 20260903173525 | 78 | 150 | 0.9 | 6.1 | 0.00 | 0.00 | 0.00 | 82 | 1014.3 |
| 20260903172754 | 79 | 343 | 2.6 | 5.2 | 0.00 | 0.00 | 0.00 | 81 | 1014.7 |
| 20260903172253 | 79 | 334 | 2.6 | 5.2 | 0.00 | 0.00 | 0.00 | 83 | 1014.7 |
| 20260903172023 | 78 | 340 | 3.5 | 6.1 | 0.00 | 0.00 | 0.00 | 81 | 1014.7 |
| 20260903171254 | 78 | 18 | 1.7 | 7.8 | 0.00 | 0.00 | 0.00 | 82 | 1014.7 |
| 20260903170752 | 78 | 42 | 4.3 | 7.8 | 0.00 | 0.00 | 0.00 | 82 | 1014.7 |
| 20260903170305 | 78 | 41 | 1.7 | 8.7 | 0.00 | 0.00 | 0.00 | 81 | 1014.7 |
| 20260903165751 | 78 | 79 | 4.3 | 8.7 | 0.00 | 0.00 | 0.00 | 83 | 1014.7 |
| 20260903165515 | 78 | 40 | 3.5 | 7.8 | 0.00 | 0.00 | 0.00 | 80 | 1015.0 |
| 20260903164751 | 79 | 67 | 3.5 | 7.8 | 0.00 | 0.00 | 0.00 | 78 | 1015.0 |
| 20260903164249 | 80 | 50 | 3.5 | 7.0 | 0.00 | 0.00 | 0.00 | 78 | 1015.0 |
| 20260903163749 | 79 | 329 | 4.3 | 4.3 | 0.00 | 0.00 | 0.00 | 80 | 1015.0 |
| 20260903163250 | 79 | 93 | 2.6 | 7.0 | 0.00 | 0.00 | 0.00 | 81 | 1015.0 |
| 20260903162748 | 79 | 308 | 1.7 | 7.0 | 0.00 | 0.00 | 0.00 | 81 | 1015.0 |
| 20260903162247 | 79 | 54 | 0.9 | 5.2 | 0.00 | 0.00 | 0.00 | 80 | 1015.4 |
| 20260903161747 | 80 | 358 | 1.7 | 5.2 | 0.00 | 0.00 | 0.00 | 79 | 1014.7 |
| 20260903161248 | 80 | 1 | 4.3 | 6.1 | 0.00 | 0.00 | 0.00 | 79 | 1015.0 |
| 20260903160747 | 80 | 23 | 1.7 | 7.8 | 0.00 | 0.00 | 0.00 | 79 | 1014.7 |
| 20260903160244 | 81 | 21 | 5.2 | 7.8 | 0.00 | 0.00 | 0.00 | 77 | 1014.7 |
| 20260903155745 | 81 | 274 | 4.3 | 7.0 | 0.00 | 0.00 | 0.00 | 76 | 1014.3 |
| 20260903155512 | 81 | 23 | 1.7 | 6.1 | 0.00 | 0.00 | 0.00 | 77 | 1014.3 |
| 20260903154745 | 81 | 344 | 4.3 | 6.1 | 0.00 | 0.00 | 0.00 | 78 | 1014.3 |
| 20260903154244 | 80 | 24 | 1.7 | 5.2 | 0.00 | 0.00 | 0.00 | 81 | 1014.3 |
| 20260903154002 | 80 | 14 | 1.7 | 4.3 | 0.00 | 0.00 | 0.00 | 81 | 1014.3 |
| 20260903153518 | 81 | 295 | 1.7 | 5.2 | 0.00 | 0.00 | 0.00 | 80 | 1014.3 |
| 20260903152741 | 81 | 9 | 1.7 | 6.1 | 0.00 | 0.00 | 0.00 | 80 | 1014.3 |
| 20260903152507 | 82 | 326 | 3.5 | 6.1 | 0.00 | 0.00 | 0.00 | 80 | 1014.7 |
| 20260903151743 | 83 | 303 | 2.6 | 3.5 | 0.00 | 0.00 | 0.00 | 82 | 1014.3 |
| 20260903151242 | 83 | 333 | 1.7 | 1.7 | 0.00 | 0.00 | 0.00 | 80 | 1013.7 |
| 20260903150739 | 83 | 273 | 0.9 | 3.5 | 0.00 | 0.00 | 0.00 | 78 | 1013.7 |
| 20260903150240 | 83 | 267 | 1.7 | 3.5 | 0.00 | 0.00 | 0.00 | 78 | 1013.3 |
| 20260903145740 | 83 | 293 | 1.7 | 2.6 | 0.00 | 0.00 | 0.00 | 78 | 1013.3 |
| 20260903145727 | 84 | 274 | 0.9 | 4.3 | 0.00 | 0.00 | 0.00 | 76 | 1013.3 |
| 20260903144737 | 84 | 242 | 1.7 | 4.3 | 0.00 | 0.00 | 0.00 | 76 | 1013.3 |
| 20260903144238 | 85 | 247 | 1.7 | 4.3 | 0.00 | 0.00 | 0.00 | 76 | 1013.3 |
| 20260903143737 | 84 | 274 | 0.9 | 5.2 | 0.00 | 0.00 | 0.00 | 77 | 1013.3 |
| 20260903143236 | 83 | 253 | 1.7 | 5.2 | 0.00 | 0.00 | 0.00 | 78 | 1013.3 |
| 20260903142736 | 83 | 252 | 1.7 | 3.5 | 0.00 | 0.00 | 0.00 | 80 | 1013.3 |
| 20260903142236 | 82 | 261 | 0.9 | 3.5 | 0.00 | 0.00 | 0.00 | 79 | 1013.3 |
| 20260903141734 | 82 | 248 | 1.7 | 2.6 | 0.00 | 0.00 | 0.00 | 80 | 1013.3 |
| 20260903141459 | 82 | 249 | 0.0 | 5.2 | 0.00 | 0.00 | 0.00 | 80 | 1012.9 |
| 20260903140733 | 82 | 265 | 2.6 | 5.2 | 0.00 | 0.00 | 0.00 | 81 | 1012.9 |
| 20260903140233 | 81 | 237 | 1.7 | 3.5 | 0.00 | 0.00 | 0.00 | 81 | 1012.9 |
| 20260903135733 | 81 | 240 | 1.7 | 3.5 | 0.00 | 0.00 | 0.00 | 82 | 1013.3 |
| 20260903135233 | 80 | 258 | 1.7 | 3.5 | 0.00 | 0.00 | 0.00 | 82 | 1013.3 |
| 20260903134734 | 80 | 219 | 1.7 | 4.3 | 0.00 | 0.00 | 0.00 | 83 | 1013.3 |
| 20260903134232 | 80 | 250 | 1.7 | 5.2 | 0.00 | 0.00 | 0.00 | 83 | 1012.9 |
| 20260903133731 | 79 | 259 | 1.7 | 5.2 | 0.00 | 0.00 | 0.00 | 83 | 1013.3 |
| 20260903133229 | 79 | 256 | 1.7 | 4.3 | 0.00 | 0.00 | 0.00 | 83 | 1013.3 |
| 20260903132729 | 79 | 230 | 2.6 | 4.3 | 0.00 | 0.00 | 0.00 | 84 | 1013.3 |
| 20260903132230 | 79 | 236 | 3.5 | 4.3 | 0.00 | 0.00 | 0.00 | 85 | 1013.3 |
| 20260903131956 | 79 | 188 | 1.7 | 3.5 | 0.00 | 0.00 | 0.00 | 85 | 1013.3 |
| 20260903131230 | 78 | 255 | 1.7 | 4.3 | 0.00 | 0.00 | 0.00 | 85 | 1013.3 |
| 20260903130728 | 78 | 234 | 1.7 | 4.3 | 0.00 | 0.00 | 0.00 | 86 | 1013.3 |
| 20260903130429 | 77 | 253 | 1.7 | 2.6 | 0.00 | 0.00 | 0.00 | 87 | 1013.3 |
| 20260903130319 | 78 | 232 | 2.6 | 3.5 | 0.00 | 0.00 | 0.00 | 87 | 1012.9 |
| 20260903125452 | 77 | 245 | 1.7 | 3.5 | 0.00 | 0.00 | 0.00 | 87 | 1013.3 |
| 20260903124726 | 77 | 242 | 0.0 | 3.5 | 0.00 | 0.00 | 0.00 | 87 | 1013.3 |
| 20260903124225 | 77 | 259 | 1.7 | 2.6 | 0.00 | 0.00 | 0.00 | 88 | 1013.3 |
| 20260903123723 | 76 | 233 | 1.7 | 2.6 | 0.00 | 0.00 | 0.00 | 88 | 1013.3 |
| 20260903123224 | 76 | 263 | 1.7 | 3.5 | 0.00 | 0.00 | 0.00 | 88 | 1013.3 |
| 20260903122722 | 76 | 230 | 1.7 | 4.3 | 0.00 | 0.00 | 0.00 | 88 | 1013.3 |
| 20260903122222 | 76 | 250 | 1.7 | 4.3 | 0.00 | 0.00 | 0.00 | 89 | 1013.3 |
| 20260903121724 | 76 | 244 | 1.7 | 3.5 | 0.00 | 0.00 | 0.00 | 89 | 1013.3 |
| 20260903121713 | 76 | 236 | 1.7 | 2.6 | 0.00 | 0.00 | 0.00 | 89 | 1013.3 |
| 20260903120943 | 76 | 235 | 1.7 | 2.6 | 0.00 | 0.00 | 0.00 | 89 | 1013.3 |
| 20260903120234 | 76 | 230 | 1.7 | 3.5 | 0.00 | 0.00 | 0.00 | 89 | 1013.3 |
| 20260903115721 | 75 | 222 | 1.7 | 3.5 | 0.00 | 0.00 | 0.00 | 90 | 1013.3 |
| 20260903115220 | 75 | 222 | 1.7 | 3.5 | 0.00 | 0.00 | 0.00 | 90 | 1013.3 |
| 20260903114718 | 75 | 228 | 2.6 | 3.5 | 0.00 | 0.00 | 0.00 | 90 | 1013.7 |
| 20260903114218 | 75 | 233 | 1.7 | 2.6 | 0.00 | 0.00 | 0.00 | 90 | 1013.7 |
| 20260903113718 | 75 | 249 | 0.9 | 2.6 | 0.00 | 0.00 | 0.00 | 90 | 1013.3 |
| 20260903113217 | 75 | 248 | 1.7 | 2.6 | 0.00 | 0.00 | 0.00 | 90 | 1013.3 |
| 20260903112732 | 75 | 225 | 1.7 | 3.5 | 0.00 | 0.00 | 0.00 | 90 | 1013.3 |
| 20260903112215 | 75 | 218 | 1.7 | 3.5 | 0.00 | 0.00 | 0.00 | 90 | 1013.3 |
| 20260903111717 | 75 | 235 | 2.6 | 3.5 | 0.00 | 0.00 | 0.00 | 90 | 1013.3 |
| 20260903111216 | 75 | 216 | 1.7 | 3.5 | 0.00 | 0.00 | 0.00 | 90 | 1013.3 |
| 20260903110936 | 75 | 212 | 1.7 | 2.6 | 0.00 | 0.00 | 0.00 | 90 | 1013.3 |
| 20260903110213 | 76 | 212 | 0.0 | 3.5 | 0.00 | 0.00 | 0.00 | 89 | 1013.3 |
| 20260903105714 | 76 | 232 | 2.6 | 2.6 | 0.00 | 0.00 | 0.00 | 89 | 1013.3 |
| 20260903105432 | 76 | 236 | 0.9 | 2.6 | 0.00 | 0.00 | 0.00 | 89 | 1013.7 |
| 20260903104712 | 76 | 226 | 1.7 | 3.5 | 0.00 | 0.00 | 0.00 | 89 | 1013.3 |
| 20260903104441 | 76 | 235 | 0.9 | 3.5 | 0.00 | 0.00 | 0.00 | 89 | 1012.9 |
| 20260903103712 | 76 | 228 | 1.7 | 2.6 | 0.00 | 0.00 | 0.00 | 90 | 1012.9 |
| 20260903103436 | 76 | 262 | 0.9 | 3.5 | 0.00 | 0.00 | 0.00 | 90 | 1012.9 |
| 20260903102711 | 76 | 229 | 0.9 | 3.5 | 0.00 | 0.00 | 0.00 | 90 | 1012.9 |
| 20260903102210 | 76 | 235 | 2.6 | 3.5 | 0.00 | 0.00 | 0.00 | 90 | 1012.9 |
| 20260903102151 | 76 | 229 | 1.7 | 3.5 | 0.00 | 0.00 | 0.00 | 90 | 1012.9 |
| 20260903101208 | 76 | 228 | 1.7 | 2.6 | 0.00 | 0.00 | 0.00 | 90 | 1013.3 |
| 20260903100710 | 76 | 198 | 1.7 | 2.6 | 0.00 | 0.00 | 0.00 | 90 | 1012.9 |
| 20260903100207 | 76 | 225 | 1.7 | 2.6 | 0.00 | 0.00 | 0.00 | 90 | 1013.3 |
| 20260903095708 | 76 | 210 | 1.7 | 2.6 | 0.00 | 0.00 | 0.00 | 90 | 1012.9 |
| 20260903095425 | 76 | 234 | 1.7 | 2.6 | 0.00 | 0.00 | 0.00 | 90 | 1012.9 |
| 20260903094707 | 76 | 251 | 0.9 | 2.6 | 0.00 | 0.00 | 0.00 | 90 | 1012.9 |
| 20260903094205 | 76 | 235 | 1.7 | 2.6 | 0.00 | 0.00 | 0.00 | 90 | 1012.9 |
| 20260903093705 | 76 | 228 | 1.7 | 1.7 | 0.00 | 0.00 | 0.00 | 90 | 1012.9 |
| 20260903093206 | 76 | 240 | 0.0 | 1.7 | 0.00 | 0.00 | 0.00 | 90 | 1012.9 |
| 20260903092930 | 76 | 249 | 0.0 | 1.7 | 0.00 | 0.00 | 0.00 | 89 | 1012.9 |
| 20260903092425 | 76 | 231 | 0.9 | 1.7 | 0.00 | 0.00 | 0.00 | 89 | 1012.9 |
| 20260903092042 | 76 | 219 | 0.0 | 1.7 | 0.00 | 0.00 | 0.00 | 89 | 1012.9 |
| 20260903091930 | 76 | 220 | 0.9 | 1.7 | 0.00 | 0.00 | 0.00 | 89 | 1012.9 |
| 20260903090921 | 77 | 193 | 0.0 | 1.7 | 0.00 | 0.00 | 0.00 | 88 | 1012.9 |
| 20260903090201 | 77 | 231 | 0.0 | 1.7 | 0.00 | 0.00 | 0.00 | 88 | 1012.9 |
| 20260903085923 | 77 | 224 | 0.0 | 1.7 | 0.00 | 0.00 | 0.00 | 88 | 1012.9 |
| 20260903085201 | 77 | 259 | 0.0 | 1.7 | 0.00 | 0.00 | 0.00 | 88 | 1012.9 |
| 20260903084928 | 77 | 240 | 0.0 | 2.6 | 0.00 | 0.00 | 0.00 | 88 | 1012.9 |
| 20260903084201 | 77 | 220 | 0.9 | 2.6 | 0.00 | 0.00 | 0.00 | 88 | 1012.9 |
| 20260903083919 | 77 | 308 | 0.9 | 1.7 | 0.00 | 0.00 | 0.00 | 88 | 1012.9 |
| 20260903083200 | 77 | 308 | 0.9 | 2.6 | 0.00 | 0.00 | 0.00 | 88 | 1012.9 |
| 20260903082918 | 77 | 248 | 0.9 | 2.6 | 0.00 | 0.00 | 0.00 | 88 | 1012.9 |
| 20260903082647 | 77 | 245 | 1.7 | 2.6 | 0.00 | 0.00 | 0.00 | 88 | 1012.5 |
| 20260903081657 | 78 | 237 | 0.9 | 2.6 | 0.00 | 0.00 | 0.00 | 88 | 1012.9 |